Weather in Padstow

United Kingdom     50°32′26″N   4°56′13″W
temp.,
°C
wind,
m/s
gust,
m/s
humid.,
%
clouds,
%
prec.,
mm/h
press.,
hPa
HPBL,
m
26 september, sun
sun2601:00+13sse458826 0.0 1011100
04:00+13sse46905 0.0 1010112
07:00+13s58926 0.0 1010162
10:00+16ssw6987100 0.0 1010320
13:00+18sw8127475 0.0 1010569
16:00+18ssw91371100 0.0 1009537
19:00+16s9158976 0.0 1008475
22:00+17s101590100 0.1 1007546
27 september, mon
mon2701:00+16s81496100 3.6 1003586
04:00+12nw81190100 14.6 1006752
07:00+12w8117622 15.4 1008813
10:00+13wsw911758 0.3 10111219
13:00+14wsw1013725 1.1 10131436
16:00+14wsw912684 0.4 10151400
19:00+14wsw8127125 0.8 1017971
22:00+14wsw710735 0.3 1019745
28 september, tue
tue2801:00+13ssw61180100 0.8 1018558
04:00+13sw71185100 1.5 1017661
07:00+13ssw71388100 4.3 1017769
10:00+14ssw81388100 0.6 1016865
13:00+15ssw101585100 2.1 1014803
16:00+14ssw131989100 4.3 10101027
19:00+13wnw15178256 7.4 10111107
22:00+12wnw1215765 0.8 10161286
29 september, wed
wed2901:00+13wnw1114725 1.3 10181281
04:00+13nw1113695 0.3 10211212
07:00+12nw911605 0.4 10241312
10:00+13nw79595 0.1 10271627
13:00+14wnw575732 0.1 10281475
16:00+14wsw576097 0.0 10281268
19:00+13wsw587270 0.1 1028644
22:00+13ssw5107657 0.3 1027619
30 september, thu
thu3001:00+14ssw91475100 0.3 1025806
04:00+15ssw111679100 0.1 1023704
07:00+15sw101593100 0.6 1022595
10:00+16sw101692100 0.8 1021646
13:00+16wsw101595100 1.6 1020581
16:00+15wsw91396100 0.8 1020470
19:00+15wsw61095100 1.2 1020268
22:00+15wsw5894100 0.1 1020196